Starlink 31899

operational
NORAD ID: 59850 Int'l Des: 2024-097 Owner: SPXS Country: US Constellation: starlink
LEOCIRCULAR

About Starlink 31899

Description loading...

Live Position

Loading 3D Globe...

Upcoming Passes

Altitude History

Altitude vs Time

uPlot chart will show altitude changes over time

Two-Line Element Set

1 59850U 24097R 25305.24489018 .00000216 00000-0 17377-4 0 9998
2 59850 43.0064 279.6799 0001463 272.2388 87.8296 15.27568913 82277
Epoch: Nov 1, 2025 • Age: 21 hours

Current Status

Altitude 487.2 km
Velocity 7.63 km/s
Sub-Earth Point 43.10°N, 73.17°W
Launch Date May 23, 2024
Age 1.4 years
Type internet

Technical Details

Classification Payload
Mass 730.00 kg
Dry Mass 700.00 kg
Total Mass 730.00 kg
Length 0.30 m
Diameter 4.10 m
Span 29.00 m
Shape Box + pan
Manufacturer SPXS
Bus Type Starlink V2M
Phase Status In Orbit
Owner/State SPXS/US

Large Constellations

Loading constellations...